"SCET";"TARGET";"ELECTRON_DENSITY";"ERROR_FLAG";"ELECTRON_DENSITY_ERROR";"FREQ_FCE";"MEASURED_VALUE";"MEASURED_ITEM";"FREQ_PLASMA";"FREQ_UPPER_HYBRID";"FREQ_R_EQUALS_ZERO";"FREQ_L_EQUALS_ZERO";"ORBIT_NUMBER";"SATURN_RADIUS";"SATURN_IAU_LONGITUDE";"SATURN_SLS4_S_LONGITUDE";"SATURN_SLS4_N_LONGITUDE";"SATURN_SLS5_S_LONGITUDE";"SATURN_SLS5_N_LONGITUDE";"SATURN_LOCAL_TIME";"SATURN_KRONOGRAPHIC_LATITUDE";"SATURN_MAGNETIC_LATITUDE";"SATURN_L";"SATURN_L_OFFSET";"SATURN_SOLAR_EQUATORIAL_X";"SATURN_SOLAR_EQUATORIAL_Y";"SATURN_SOLAR_EQUATORIAL_Z";"SATURN_ALTITUDE";"ENCELADUS_ENCOUNTER_NUMBER";"ENCELADUS_RADIUS";"ENCELADUS_COROTATIONAL_X";"ENCELADUS_COROTATIONAL_Y";"ENCELADUS_COROTATIONAL_Z";"ENCELADUS_TRUE_ANOMALY";"ENCELADUS_PERIAPSIS_TIME";"JUPITER_RADIUS";"JUPITER_SYSTEMIII_LONGITUDE";"JUPITER_MAGNETIC_LATITUDE";"JUPITER_MAGNETIC_LOCAL_TIME";"JUPITER_L";"IO_PHASE";"EARTH_RADIUS";"EARTH_MAGNETIC_LATITUDE";"EARTH_LOCAL_TIME";"EARTH_L"
"[UTC]";"[0=Saturn, 1=Enceladus, 2=Jupiter, 3=Earth]";"[cm-3]";"[0=automated, 1=manual]";"[normalized density error]";"[Hz]";"[Hz]";"[0=upper hybrid frequency, 1=plasma frequency cutoff]";"[Hz]";"[Hz]";"[Hz]";"[Hz}";"[0, A, B, C, 3, 4, ... , 292, 293]";"[Rs where 1Rs=60268km]";"[degrees]";"[degrees]";"[degrees]";"[degrees]";"[degrees]";"[hours]";"[degrees]";"[degrees where offset=2293km north]";"[Rs where 1Rs=60268km]";"[Rs where 1Rs=60268km and offset=2293km north]";"[Rs where 1Rs=60268km]";"[Rs where 1Rs=60268km]";"[Rs where 1Rs=60268km]";"[km where ellipsoid a,b=60268km and c=54364km]";"[E0, E1, E2, ... , E21, E22]";"[Renc where 1Renc=252.1km]";"[Renc where 1Renc=252.1km]";"[Renc where 1Renc=252.1km]";"[Renc where 1Renc=252.1km]";"[degrees]";"[UTC]";"[Rj where 1Rj=71492km]";"[degrees]";"[degrees using JRM09 model]";"[hours using JRM09 model]";"[Rj where 1Rj=71492km]";"[degrees]";"[Re where 1Re=6378.1366km]";"[degrees]";"[hours]";"[Re where 1Re=6378.1366km]"
2005-09-24T00:00:06.598Z;0;6.2880e+01;0;     0.084; 12835.761;  72355.227; 0;  71207.602;  72355.227;  77914.109;  65078.352; 15;   3.552; 332.554; 114.316;; 125.409; 210.310;  22.395;   0.267;  -0.347;   3.552;   3.549;  -3.243;   1.449;   0.017;;;;;;;;;;;;;;;;;;
2005-09-24T00:00:14.598Z;0;6.3100e+01;0;     0.079; 12835.761;  72480.320; 0;  71334.703;  72480.320;  78040.703;  65204.945; 15;   3.553; 332.593; 114.354;; 125.448; 210.349;  22.397;   0.267;  -0.346;   3.553;   3.549;  -3.245;   1.447;   0.017;;;;;;;;;;;;;;;;;;
2005-09-24T00:00:22.598Z;0;6.3020e+01;0;     0.083; 12835.761;  72435.078; 0;  71288.734;  72435.078;  77994.922;  65159.164; 15;   3.554; 332.633; 114.393;; 125.487; 210.389;  22.400;   0.267;  -0.346;   3.554;   3.550;  -3.247;   1.446;   0.017;;;;;;;;;;;;;;;;;;
2005-09-24T00:00:30.598Z;0;6.3010e+01;0;     0.085; 12835.761;  72426.477; 0;  71279.992;  72426.477;  77986.219;  65150.457; 15;   3.555; 332.672; 114.431;; 125.526; 210.428;  22.402;   0.267;  -0.346;   3.555;   3.551;  -3.248;   1.444;   0.017;;;;;;;;;;;;;;;;;;
2005-09-24T00:00:38.598Z;0;6.3010e+01;0;     0.090; 12835.761;  72429.586; 0;  71283.156;  72429.586;  77989.367;  65153.605; 15;   3.556; 332.711; 114.469;; 125.565; 210.468;  22.404;   0.267;  -0.346;   3.556;   3.552;  -3.250;   1.442;   0.017;;;;;;;;;;;;;;;;;;
2005-09-24T00:00:46.597Z;0;6.3140e+01;0;     0.087; 12835.761;  72500.586; 0;  71355.297;  72500.586;  78061.219;  65225.453; 15;   3.557; 332.751; 114.508;; 125.604; 210.507;  22.407;   0.267;  -0.346;   3.557;   3.553;  -3.252;   1.441;   0.017;;;;;;;;;;;;;;;;;;
2005-09-24T00:00:54.597Z;0;6.2080e+01;0;     0.079; 12835.761;  71908.656; 0;  70753.781;  71908.656;  77462.141;  64626.383; 15;   3.558; 332.790; 114.546;; 125.643; 210.547;  22.409;   0.266;  -0.346;   3.558;   3.554;  -3.254;   1.439;   0.017;;;;;;;;;;;;;;;;;;
2005-09-24T00:01:02.597Z;0;6.2540e+01;0;     0.084; 12835.761;  72163.797; 0;  71013.078;  72163.797;  77720.375;  64884.617; 15;   3.559; 332.829; 114.584;; 125.682; 210.586;  22.411;   0.266;  -0.346;   3.559;   3.555;  -3.255;   1.437;   0.017;;;;;;;;;;;;;;;;;;
2005-09-24T00:01:10.597Z;0;6.3470e+01;0;     0.078; 12835.761;  72681.953; 0;  71539.570;  72681.953;  78244.750;  65408.984; 15;   3.559; 332.869; 114.623;; 125.721; 210.626;  22.414;   0.266;  -0.346;   3.560;   3.556;  -3.257;   1.436;   0.017;;;;;;;;;;;;;;;;;;
2005-09-24T00:01:18.597Z;0;6.3250e+01;0;     0.081; 12835.761;  72559.508; 0;  71415.164;  72559.508;  78120.844;  65285.082; 15;   3.560; 332.908; 114.661;; 125.760; 210.665;  22.416;   0.266;  -0.346;   3.560;   3.557;  -3.259;   1.434;   0.017;;;;;;;;;;;;;;;;;;
2005-09-24T00:01:26.597Z;0;6.3600e+01;0;     0.090; 12835.761;  72758.172; 0;  71617.000;  72758.172;  78321.875;  65486.113; 15;   3.561; 332.948; 114.700;; 125.799; 210.705;  22.419;   0.266;  -0.346;   3.561;   3.558;  -3.260;   1.432;   0.017;;;;;;;;;;;;;;;;;;
2005-09-24T00:01:34.597Z;0;6.3450e+01;0;     0.090; 12761.560;  72662.039; 0;  71532.609;  72662.039;  78197.414;  65435.855; 15;   3.562; 332.987; 114.738;; 125.838; 210.744;  22.421;   0.266;  -0.346;   3.562;   3.559;  -3.262;   1.431;   0.017;;;;;;;;;;;;;;;;;;
2005-09-24T00:01:42.597Z;0;6.3270e+01;0;     0.084; 12761.560;  72560.562; 0;  71429.531;  72560.562;  78094.742;  65333.180; 15;   3.563; 333.027; 114.777;; 125.877; 210.784;  22.423;   0.266;  -0.346;   3.563;   3.559;  -3.264;   1.429;   0.017;;;;;;;;;;;;;;;;;;
2005-09-24T00:01:50.597Z;0;6.6050e+01;0;     0.089; 12761.560;  74088.398; 0;  72981.047;  74088.398;  79640.234;  66878.672; 15;   3.564; 333.066; 114.815;; 125.916; 210.823;  22.426;   0.266;  -0.346;   3.564;   3.560;  -3.266;   1.427;   0.017;;;;;;;;;;;;;;;;;;
2005-09-24T00:01:58.597Z;0;6.3390e+01;0;     0.083; 12761.560;  72627.391; 0;  71497.414;  72627.391;  78162.359;  65400.797; 15;   3.565; 333.106; 114.854;; 125.955; 210.863;  22.428;   0.266;  -0.346;   3.565;   3.561;  -3.267;   1.426;   0.017;;;;;;;;;;;;;;;;;;
2005-09-24T00:02:06.597Z;0;6.2730e+01;0;     0.079; 12761.560;  72260.227; 0;  71124.422;  72260.227;  77790.844;  65029.285; 15;   3.566; 333.145; 114.892;; 125.994; 210.902;  22.430;   0.265;  -0.346;   3.566;   3.562;  -3.269;   1.424;   0.017;;;;;;;;;;;;;;;;;;
2005-09-24T00:02:14.597Z;0;6.2830e+01;0;     0.085; 12761.560;  72317.719; 0;  71182.828;  72317.719;  77849.023;  65087.461; 15;   3.567; 333.185; 114.931;; 126.033; 210.942;  22.433;   0.265;  -0.346;   3.567;   3.563;  -3.271;   1.422;   0.017;;;;;;;;;;;;;;;;;;
2005-09-24T00:02:22.597Z;0;6.2790e+01;0;     0.083; 12761.560;  72290.961; 0;  71155.641;  72290.961;  77821.945;  65060.383; 15;   3.568; 333.224; 114.970;; 126.073; 210.982;  22.435;   0.265;  -0.346;   3.568;   3.564;  -3.273;   1.421;   0.017;;;;;;;;;;;;;;;;;;
2005-09-24T00:02:30.597Z;0;6.3320e+01;0;     0.092; 12761.560;  72587.867; 0;  71457.266;  72587.867;  78122.367;  65360.809; 15;   3.569; 333.264; 115.008;; 126.112; 211.021;  22.438;   0.265;  -0.346;   3.569;   3.565;  -3.274;   1.419;   0.017;;;;;;;;;;;;;;;;;;
2005-09-24T00:02:38.597Z;0;6.2770e+01;0;     0.073; 12689.040;  72266.242; 0;  71143.500;  72266.242;  77770.359;  65081.324; 15;   3.569; 333.304; 115.047;; 126.151; 211.061;  22.440;   0.265;  -0.346;   3.570;   3.566;  -3.276;   1.418;   0.017;;;;;;;;;;;;;;;;;;
2005-09-24T00:02:46.597Z;0;6.3200e+01;0;     0.082; 12689.040;  72508.117; 0;  71389.180;  72508.117;  78015.070;  65326.035; 15;   3.570; 333.343; 115.086;; 126.190; 211.100;  22.442;   0.265;  -0.346;   3.570;   3.567;  -3.278;   1.416;   0.017;;;;;;;;;;;;;;;;;;
2005-09-24T00:02:54.597Z;0;6.3260e+01;0;     0.087; 12689.040;  72540.180; 0;  71421.750;  72540.180;  78047.508;  65358.473; 15;   3.571; 333.383; 115.124;; 126.229; 211.140;  22.445;   0.265;  -0.345;   3.571;   3.568;  -3.279;   1.414;   0.017;;;;;;;;;;;;;;;;;;
2005-09-24T00:03:02.597Z;0;6.6910e+01;0;     0.089; 12689.040;  74542.500; 0;  73454.562;  74542.500;  80072.570;  67383.531; 15;   3.572; 333.423; 115.163;; 126.269; 211.179;  22.447;   0.265;  -0.345;   3.572;   3.569;  -3.281;   1.413;   0.017;;;;;;;;;;;;;;;;;;
2005-09-24T00:03:10.597Z;0;6.3690e+01;0;     0.082; 12689.040;  72783.148; 0;  71668.508;  72783.148;  78293.305;  65604.266; 15;   3.573; 333.462; 115.202;; 126.308; 211.219;  22.449;   0.265;  -0.345;   3.573;   3.570;  -3.283;   1.411;   0.016;;;;;;;;;;;;;;;;;;
2005-09-24T00:03:18.596Z;0;6.2790e+01;0;     0.078; 12689.040;  72277.438; 0;  71154.875;  72277.438;  77781.688;  65092.648; 15;   3.574; 333.502; 115.240;; 126.347; 211.258;  22.452;   0.264;  -0.345;   3.574;   3.570;  -3.285;   1.409;   0.016;;;;;;;;;;;;;;;;;;
2005-09-24T00:03:26.596Z;0;6.3290e+01;0;     0.073; 12689.040;  72557.336; 0;  71439.172;  72557.336;  78064.867;  65375.828; 15;   3.575; 333.542; 115.279;; 126.387; 211.298;  22.454;   0.264;  -0.345;   3.575;   3.571;  -3.286;   1.408;   0.016;;;;;;;;;;;;;;;;;;
2005-09-24T00:03:34.596Z;0;6.3930e+01;0;     0.090; 12614.560;  72898.391; 0;  71798.664;  72898.391;  78382.445;  65767.891; 15;   3.576; 333.581; 115.318;; 126.426; 211.337;  22.456;   0.264;  -0.345;   3.576;   3.572;  -3.288;   1.406;   0.016;;;;;;;;;;;;;;;;;;
2005-09-24T00:03:42.596Z;0;6.3580e+01;0;     0.078; 12614.560;  72704.797; 0;  71602.094;  72704.797;  78186.641;  65572.078; 15;   3.577; 333.621; 115.357;; 126.465; 211.377;  22.459;   0.264;  -0.345;   3.577;   3.573;  -3.290;   1.404;   0.016;;;;;;;;;;;;;;;;;;
2005-09-24T00:03:50.596Z;0;6.5960e+01;0;     0.093; 12614.560;  74017.133; 0;  72934.281;  74017.133;  79513.773;  66899.211; 15;   3.578; 333.661; 115.395;; 126.505; 211.416;  22.461;   0.264;  -0.345;   3.578;   3.574;  -3.291;   1.403;   0.016;;;;;;;;;;;;;;;;;;
2005-09-24T00:03:58.596Z;0;6.4740e+01;0;     0.091; 12614.560;  73349.695; 0;  72256.836;  73349.695;  78838.875;  66224.320; 15;   3.579; 333.701; 115.434;; 126.544; 211.456;  22.463;   0.264;  -0.345;   3.579;   3.575;  -3.293;   1.401;   0.016;;;;;;;;;;;;;;;;;;
2005-09-24T00:04:06.596Z;0;6.5580e+01;0;     0.093; 12614.560;  73805.953; 0;  72719.953;  73805.953;  79300.250;  66685.688; 15;   3.580; 333.741; 115.473;; 126.583; 211.496;  22.466;   0.264;  -0.345;   3.580;   3.576;  -3.295;   1.399;   0.016;;;;;;;;;;;;;;;;;;
2005-09-24T00:04:14.596Z;0;6.7100e+01;0;     0.085; 12614.560;  74633.984; 0;  73560.211;  74633.984;  80137.398;  67522.836; 15;   3.581; 333.780; 115.512;; 126.623; 211.535;  22.468;   0.264;  -0.345;   3.581;   3.577;  -3.297;   1.398;   0.016;;;;;;;;;;;;;;;;;;
2005-09-24T00:04:22.596Z;0;6.5310e+01;0;     0.095; 12614.560;  73657.719; 0;  72569.500;  73657.719;  79150.359;  66535.797; 15;   3.581; 333.820; 115.551;; 126.662; 211.575;  22.471;   0.264;  -0.345;   3.582;   3.578;  -3.298;   1.396;   0.016;;;;;;;;;;;;;;;;;;
2005-09-24T00:04:30.596Z;0;6.7510e+01;0;     0.081; 12614.560;  74853.469; 0;  73782.891;  74853.469;  80359.266;  67744.703; 15;   3.582; 333.860; 115.590;; 126.702; 211.614;  22.473;   0.264;  -0.345;   3.582;   3.579;  -3.300;   1.394;   0.016;;;;;;;;;;;;;;;;;;
2005-09-24T00:04:38.596Z;0;6.6380e+01;0;     0.080; 12540.359;  74228.258; 0;  73161.281;  74228.258;  79699.664;  67159.305; 15;   3.583; 333.900; 115.629;; 126.741; 211.654;  22.475;   0.263;  -0.345;   3.583;   3.580;  -3.302;   1.393;   0.016;;;;;;;;;;;;;;;;;;
2005-09-24T00:04:46.596Z;0;6.6990e+01;0;     0.074; 12540.359;  74561.188; 0;  73499.047;  74561.188;  80036.195;  67495.836; 15;   3.584; 333.940; 115.668;; 126.781; 211.693;  22.478;   0.263;  -0.345;   3.584;   3.581;  -3.303;   1.391;   0.016;;;;;;;;;;;;;;;;;;
2005-09-24T00:04:54.596Z;0;6.6230e+01;0;     0.080; 12540.359;  74149.180; 0;  73081.055;  74149.180;  79619.719;  67079.359; 15;   3.585; 333.980; 115.707;; 126.820; 211.733;  22.480;   0.263;  -0.345;   3.585;   3.581;  -3.305;   1.389;   0.016;;;;;;;;;;;;;;;;;;
2005-09-24T00:05:02.596Z;0;6.6300e+01;0;     0.087; 12540.359;  74186.273; 0;  73118.688;  74186.273;  79657.219;  67116.859; 15;   3.586; 334.020; 115.746;; 126.860; 211.772;  22.482;   0.263;  -0.345;   3.586;   3.582;  -3.307;   1.388;   0.016;;;;;;;;;;;;;;;;;;
2005-09-24T00:05:10.596Z;0;6.7200e+01;0;     0.084; 12540.359;  74677.289; 0;  73616.828;  74677.289;  80153.547;  67613.188; 15;   3.587; 334.060; 115.784;; 126.899; 211.812;  22.485;   0.263;  -0.345;   3.587;   3.583;  -3.308;   1.386;   0.016;;;;;;;;;;;;;;;;;;
2005-09-24T00:05:18.596Z;0;6.7120e+01;0;     0.078; 12540.359;  74631.812; 0;  73570.695;  74631.812;  80107.586;  67567.219; 15;   3.588; 334.100; 115.823;; 126.939; 211.851;  22.487;   0.263;  -0.345;   3.588;   3.584;  -3.310;   1.384;   0.016;;;;;;;;;;;;;;;;;;
2005-09-24T00:05:26.596Z;0;6.7390e+01;0;     0.075; 12540.359;  74778.312; 0;  73719.305;  74778.312;  80255.656;  67715.297; 15;   3.589; 334.140; 115.863;; 126.979; 211.891;  22.489;   0.263;  -0.345;   3.589;   3.585;  -3.312;   1.383;   0.016;;;;;;;;;;;;;;;;;;
2005-09-24T00:05:34.596Z;0;6.6760e+01;0;     0.084; 12465.880;  74422.016; 0;  73370.555;  74422.016;  79867.766;  67401.891; 15;   3.590; 334.180; 115.902;; 127.018; 211.930;  22.492;   0.263;  -0.344;   3.590;   3.586;  -3.314;   1.381;   0.016;;;;;;;;;;;;;;;;;;
2005-09-24T00:05:42.596Z;0;6.8140e+01;0;     0.092; 12465.880;  75169.969; 0;  74129.117;  75169.969;  80623.633;  68157.758; 15;   3.591; 334.220; 115.941;; 127.058; 211.970;  22.494;   0.263;  -0.344;   3.591;   3.587;  -3.315;   1.379;   0.016;;;;;;;;;;;;;;;;;;
2005-09-24T00:05:50.596Z;0;6.7980e+01;0;     0.083; 12465.880;  75082.570; 0;  74040.492;  75082.570;  80535.320;  68069.438; 15;   3.592; 334.260; 115.980;; 127.097; 212.010;  22.496;   0.262;  -0.344;   3.592;   3.588;  -3.317;   1.378;   0.016;;;;;;;;;;;;;;;;;;
2005-09-24T00:05:58.595Z;0;6.7310e+01;0;     0.082; 12465.880;  74718.852; 0;  73671.625;  74718.852;  80167.766;  67701.883; 15;   3.593; 334.300; 116.019;; 127.137; 212.049;  22.499;   0.262;  -0.344;   3.593;   3.589;  -3.319;   1.376;   0.016;;;;;;;;;;;;;;;;;;
2005-09-24T00:06:06.595Z;0;6.8270e+01;0;     0.080; 12465.880;  75238.148; 0;  74198.250;  75238.148;  80692.531;  68226.648; 15;   3.594; 334.340; 116.058;; 127.177; 212.089;  22.501;   0.262;  -0.344;   3.594;   3.590;  -3.320;   1.374;   0.016;;;;;;;;;;;;;;;;;;
2005-09-24T00:06:14.595Z;0;6.8750e+01;0;     0.091; 12465.880;  75491.922; 0;  74455.570;  75491.922;  80948.945;  68483.070; 15;   3.594; 334.380; 116.097;; 127.216; 212.128;  22.503;   0.262;  -0.344;   3.595;   3.591;  -3.322;   1.373;   0.016;;;;;;;;;;;;;;;;;;
2005-09-24T00:06:22.595Z;0;6.7950e+01;0;     0.075; 12465.880;  75066.203; 0;  74023.891;  75066.203;  80518.781;  68052.898; 15;   3.595; 334.420; 116.136;; 127.256; 212.168;  22.506;   0.262;  -0.344;   3.595;   3.592;  -3.324;   1.371;   0.016;;;;;;;;;;;;;;;;;;
2005-09-24T00:06:30.595Z;0;6.8110e+01;0;     0.082; 12465.880;  75153.289; 0;  74112.203;  75153.289;  80606.781;  68140.898; 15;   3.596; 334.460; 116.175;; 127.296; 212.207;  22.508;   0.262;  -0.344;   3.596;   3.593;  -3.325;   1.369;   0.016;;;;;;;;;;;;;;;;;;
2005-09-24T00:06:46.595Z;0;6.8070e+01;0;     0.079; 12391.399;  75117.820; 0;  74088.734;  75117.820;  80543.039;  68151.641; 15;   3.598; 334.541; 116.254;; 127.375; 212.286;  22.513;   0.262;  -0.344;   3.598;   3.594;  -3.329;   1.366;   0.016;;;;;;;;;;;;;;;;;;
2005-09-24T00:06:54.595Z;0;6.8660e+01;0;     0.090; 12391.399;  75433.805; 0;  74409.086;  75433.805;  80862.281;  68470.883; 15;   3.599; 334.581; 116.293;; 127.415; 212.326;  22.515;   0.262;  -0.344;   3.599;   3.595;  -3.331;   1.364;   0.016;;;;;;;;;;;;;;;;;;
2005-09-24T00:07:02.595Z;0;6.8070e+01;0;     0.080; 12391.399;  75118.148; 0;  74089.062;  75118.148;  80543.367;  68151.969; 15;   3.600; 334.621; 116.332;; 127.455; 212.365;  22.517;   0.261;  -0.344;   3.600;   3.596;  -3.332;   1.362;   0.016;;;;;;;;;;;;;;;;;;
2005-09-24T00:07:10.595Z;0;6.7980e+01;0;     0.079; 12391.399;  75067.773; 0;  74037.992;  75067.773;  80492.477;  68101.070; 15;   3.601; 334.661; 116.371;; 127.495; 212.405;  22.520;   0.261;  -0.344;   3.601;   3.597;  -3.334;   1.361;   0.016;;;;;;;;;;;;;;;;;;
2005-09-24T00:07:34.595Z;0;6.8260e+01;0;     0.084; 12316.920;  75207.469; 0;  74192.023;  75207.469;  80605.648;  68288.727; 15;   3.604; 334.782; 116.489;; 127.615; 212.524;  22.527;   0.261;  -0.344;   3.604;   3.600;  -3.339;   1.356;   0.016;;;;;;;;;;;;;;;;;;
2005-09-24T00:07:42.595Z;0;6.8290e+01;0;     0.088; 12316.920;  75222.906; 0;  74207.672;  75222.906;  80621.242;  68304.320; 15;   3.605; 334.822; 116.529;; 127.654; 212.563;  22.529;   0.261;  -0.344;   3.605;   3.601;  -3.341;   1.354;   0.016;;;;;;;;;;;;;;;;;;
2005-09-24T00:07:50.595Z;0;6.7780e+01;0;     0.073; 12316.920;  74950.867; 0;  73931.898;  74950.867;  80346.414;  68029.492; 15;   3.606; 334.863; 116.568;; 127.694; 212.603;  22.531;   0.261;  -0.344;   3.606;   3.602;  -3.342;   1.352;   0.016;;;;;;;;;;;;;;;;;;
2005-09-24T00:07:58.595Z;0;6.8110e+01;0;     0.079; 12316.920;  75125.375; 0;  74108.805;  75125.375;  80522.711;  68205.789; 15;   3.607; 334.903; 116.607;; 127.734; 212.642;  22.533;   0.261;  -0.344;   3.607;   3.603;  -3.344;   1.351;   0.016;;;;;;;;;;;;;;;;;;
2005-09-24T00:08:06.595Z;0;6.8000e+01;0;     0.072; 12316.920;  75067.953; 0;  74050.602;  75067.953;  80464.703;  68147.781; 15;   3.608; 334.943; 116.647;; 127.774; 212.682;  22.536;   0.261;  -0.344;   3.608;   3.604;  -3.346;   1.349;   0.016;;;;;;;;;;;;;;;;;;
2005-09-24T00:08:14.595Z;0;6.8390e+01;0;     0.083; 12316.920;  75276.594; 0;  74262.094;  75276.594;  80675.477;  68358.555; 15;   3.608; 334.984; 116.686;; 127.814; 212.721;  22.538;   0.260;  -0.344;   3.609;   3.605;  -3.347;   1.347;   0.016;;;;;;;;;;;;;;;;;;
2005-09-24T00:08:22.595Z;0;6.7790e+01;0;     0.080; 12316.920;  74957.586; 0;  73938.711;  74957.586;  80353.203;  68036.281; 15;   3.609; 335.024; 116.726;; 127.854; 212.761;  22.540;   0.260;  -0.343;   3.609;   3.606;  -3.349;   1.346;   0.016;;;;;;;;;;;;;;;;;;
2005-09-24T00:08:30.594Z;0;6.7760e+01;0;     0.079; 12316.920;  74941.875; 0;  73922.781;  74941.875;  80337.328;  68020.406; 15;   3.610; 335.065; 116.765;; 127.894; 212.801;  22.543;   0.260;  -0.343;   3.610;   3.607;  -3.351;   1.344;   0.016;;;;;;;;;;;;;;;;;;
2005-09-24T00:08:38.594Z;0;6.7750e+01;0;     0.076; 12243.000;  74920.852; 0;  73913.750;  74920.852;  80288.312;  68045.312; 15;   3.611; 335.105; 116.804;; 127.934; 212.840;  22.545;   0.260;  -0.343;   3.611;   3.608;  -3.352;   1.342;   0.016;;;;;;;;;;;;;;;;;;
2005-09-24T00:08:46.594Z;0;6.7850e+01;0;     0.084; 12243.000;  74975.812; 0;  73969.461;  74975.812;  80343.828;  68100.828; 15;   3.612; 335.145; 116.844;; 127.974; 212.880;  22.547;   0.260;  -0.343;   3.612;   3.609;  -3.354;   1.341;   0.016;;;;;;;;;;;;;;;;;;
2005-09-24T00:08:54.594Z;0;6.8150e+01;0;     0.089; 12243.000;  75135.641; 0;  74131.461;  75135.641;  80505.273;  68262.273; 15;   3.613; 335.186; 116.883;; 128.014; 212.919;  22.550;   0.260;  -0.343;   3.613;   3.609;  -3.356;   1.339;   0.016;;;;;;;;;;;;;;;;;;
2005-09-24T00:09:02.594Z;0;6.7700e+01;0;     0.086; 12243.000;  74892.773; 0;  73885.289;  74892.773;  80259.945;  68016.945; 15;   3.614; 335.226; 116.923;; 128.054; 212.959;  22.552;   0.260;  -0.343;   3.614;   3.610;  -3.358;   1.337;   0.016;;;;;;;;;;;;;;;;;;
2005-09-24T00:09:10.594Z;0;6.7860e+01;0;     0.081; 12243.000;  74980.172; 0;  73973.883;  74980.172;  80348.234;  68105.234; 15;   3.615; 335.267; 116.962;; 128.095; 212.998;  22.554;   0.260;  -0.343;   3.615;   3.611;  -3.359;   1.336;   0.016;;;;;;;;;;;;;;;;;;
2005-09-24T00:09:18.594Z;0;6.7520e+01;0;     0.075; 12243.000;  74800.617; 0;  73791.875;  74800.617;  80166.852;  67923.852; 15;   3.616; 335.307; 117.002;; 128.135; 213.038;  22.557;   0.260;  -0.343;   3.616;   3.612;  -3.361;   1.334;   0.016;;;;;;;;;;;;;;;;;;
2005-09-24T00:09:26.594Z;0;6.7380e+01;0;     0.082; 12243.000;  74722.734; 0;  73712.930;  74722.734;  80088.172;  67845.172; 15;   3.617; 335.348; 117.041;; 128.175; 213.077;  22.559;   0.259;  -0.343;   3.617;   3.613;  -3.363;   1.332;   0.016;;;;;;;;;;;;;;;;;;
2005-09-24T00:09:34.594Z;0;6.6970e+01;0;     0.077; 12170.761;  74486.961; 0;  73485.914;  74486.961;  79822.828;  67652.070; 15;   3.618; 335.389; 117.081;; 128.215; 213.117;  22.561;   0.259;  -0.343;   3.618;   3.614;  -3.364;   1.331;   0.016;;;;;;;;;;;;;;;;;;
2005-09-24T00:09:42.594Z;0;6.6740e+01;0;     0.079; 12170.761;  74363.453; 0;  73360.727;  74363.453;  79698.070;  67527.305; 15;   3.619; 335.429; 117.121;; 128.255; 213.157;  22.563;   0.259;  -0.343;   3.619;   3.615;  -3.366;   1.329;   0.016;;;;;;;;;;;;;;;;;;
2005-09-24T00:09:50.594Z;0;6.7590e+01;0;     0.082; 12170.761;  74822.906; 0;  73826.414;  74822.906;  80162.180;  67991.414; 15;   3.620; 335.470; 117.160;; 128.295; 213.196;  22.566;   0.259;  -0.343;   3.620;   3.616;  -3.368;   1.327;   0.016;;;;;;;;;;;;;;;;;;
2005-09-24T00:09:58.594Z;0;6.7090e+01;0;     0.083; 12170.761;  74551.641; 0;  73551.477;  74551.641;  79888.172;  67717.406; 15;   3.621; 335.510; 117.200;; 128.336; 213.236;  22.568;   0.259;  -0.343;   3.621;   3.617;  -3.369;   1.326;   0.016;;;;;;;;;;;;;;;;;;
2005-09-24T00:10:14.594Z;0;6.6980e+01;0;     0.091; 12170.761;  74496.516; 0;  73495.602;  74496.516;  79832.484;  67661.727; 15;   3.623; 335.592; 117.279;; 128.415; 213.317;  22.573;   0.259;  -0.343;   3.623;   3.619;  -3.373;   1.322;   0.016;;;;;;;;;;;;;;;;;;
2005-09-24T00:10:22.594Z;0;6.7640e+01;0;     0.090; 12170.761;  74852.445; 0;  73856.352;  74852.445;  80192.016;  68021.250; 15;   3.623; 335.632; 117.319;; 128.454; 213.358;  22.575;   0.259;  -0.343;   3.624;   3.620;  -3.374;   1.321;   0.016;;;;;;;;;;;;;;;;;;
2005-09-24T00:10:30.594Z;0;6.6300e+01;0;     0.086; 12170.761;  74123.359; 0;  73117.336;  74123.359;  79455.516;  67284.758; 15;   3.624; 335.673; 117.359;; 128.494; 213.399;  22.577;   0.259;  -0.343;   3.625;   3.621;  -3.376;   1.319;   0.016;;;;;;;;;;;;;;;;;;
2005-09-24T00:10:38.594Z;0;6.7260e+01;0;     0.090; 12097.120;  74631.484; 0;  73644.539;  74631.484;  79941.070;  67843.953; 15;   3.625; 335.714; 117.398;; 128.533; 213.440;  22.580;   0.259;  -0.343;   3.625;   3.622;  -3.378;   1.317;   0.016;;;;;;;;;;;;;;;;;;
2005-09-24T00:10:46.594Z;0;6.6200e+01;0;     0.081; 12097.120;  74059.477; 0;  73064.805;  74059.477;  79363.297;  67266.180; 15;   3.626; 335.754; 117.438;; 128.573; 213.481;  22.582;   0.258;  -0.343;   3.626;   3.623;  -3.379;   1.315;   0.016;;;;;;;;;;;;;;;;;;
2005-09-24T00:10:54.594Z;0;6.7650e+01;0;     0.076; 12097.120;  74845.953; 0;  73861.875;  74845.953;  80157.680;  68060.555; 15;   3.627; 335.795; 117.478;; 128.613; 213.522;  22.584;   0.258;  -0.343;   3.627;   3.624;  -3.381;   1.314;   0.016;;;;;;;;;;;;;;;;;;
2005-09-24T00:11:02.594Z;0;6.7570e+01;0;     0.082; 12097.120;  74803.070; 0;  73818.422;  74803.070;  80114.367;  68017.250; 15;   3.628; 335.836; 117.518;; 128.652; 213.564;  22.586;   0.258;  -0.343;   3.628;   3.625;  -3.383;   1.312;   0.016;;;;;;;;;;;;;;;;;;
2005-09-24T00:11:10.593Z;0;6.6780e+01;0;     0.089; 12097.120;  74373.703; 0;  73383.289;  74373.703;  79680.703;  67583.586; 15;   3.629; 335.877; 117.557;; 128.692; 213.605;  22.589;   0.258;  -0.342;   3.629;   3.625;  -3.384;   1.310;   0.016;;;;;;;;;;;;;;;;;;
2005-09-24T00:11:18.593Z;0;6.7080e+01;0;     0.088; 12097.120;  74534.312; 0;  73546.062;  74534.312;  79842.930;  67745.805; 15;   3.630; 335.917; 117.597;; 128.731; 213.646;  22.591;   0.258;  -0.342;   3.630;   3.626;  -3.386;   1.309;   0.016;;;;;;;;;;;;;;;;;;
2005-09-24T00:11:26.593Z;0;6.7590e+01;0;     0.095; 12097.120;  74814.266; 0;  73829.766;  74814.266;  80125.680;  68028.555; 15;   3.631; 335.958; 117.637;; 128.771; 213.687;  22.593;   0.258;  -0.342;   3.631;   3.627;  -3.388;   1.307;   0.016;;;;;;;;;;;;;;;;;;
2005-09-24T00:11:34.593Z;0;6.7770e+01;0;     0.081; 12024.601;  74899.242; 0;  73927.703;  74899.242;  80184.078;  68159.484; 15;   3.632; 335.999; 117.677;; 128.810; 213.729;  22.596;   0.258;  -0.342;   3.632;   3.628;  -3.389;   1.305;   0.016;;;;;;;;;;;;;;;;;;